Location: Buchberg
(46.9333°N, 15.8500°E)
Time: 09:58:20
(UTC+00:00)

Cosmos 676 Rocket - Pass Details

Date: 14 July 2020
Orbit: 753 x 785 km, 74.0° (Epoch: 07 August)

Event Time Altitude Azimuth Distance (km) Brightness Sun altitude
Exits shadow 01:16:40 22° 196° (SSW) 1,617 5.1 -15.1°
Maximum altitude 01:20:05 83° 110° (ESE) 785 4.0 -14.7°
Drops below altitude 10° 01:25:25 10° 24° (NNE) 2,338 7.9 -14.2°
Sets 01:27:49 0° 23° (NNE) 3,274 9.0 -14.0°
